When you browse on this site, cookies collect data to enhance your experience and personalize the content and advertising you see.
Visit our Privacy Policy to learn more. By continuing to use the site, you agree to this use of cookies and data.
  • In Schweiz
  • Länderverzeichnis
  • Für 7 Tage
  • Wassertemperatur
  • Wetterkarte
  • Widgets
  • user-avatar
    Anmelden

    Stündliche Wetter Newcastle

    Heute, 20 Februar, Donnerstag

    Zeit Temperatur Niederschläge Wind Luftdruck Luftfeuchtigkeit
    00:00 +18°C° 0 mm 2 m/S 755 mmHg 73%
    01:00 +18°C° 0 mm 3 m/S 755 mmHg 73%
    02:00 +18°C° 0 mm 3 m/S 755 mmHg 73%
    03:00 +17°C° 0 mm 3 m/S 755 mmHg 73%
    04:00 +17°C° 0 mm 2 m/S 755 mmHg 75%
    05:00 +17°C° 0 mm 2 m/S 755 mmHg 73%
    06:00 +18°C° 0 mm 2 m/S 756 mmHg 72%
    07:00 +18°C° 0 mm 2 m/S 756 mmHg 70%
    08:00 +21°C° 0.1 mm 2 m/S 757 mmHg 65%
    09:00 +24°C° 0.1 mm 2 m/S 757 mmHg 60%
    10:00 +26°C° 0.1 mm 2 m/S 757 mmHg 54%
    11:00 +25°C° 0.1 mm 3 m/S 757 mmHg 58%
    12:00 +25°C° 0.1 mm 4 m/S 757 mmHg 61%
    13:00 +23°C° 0.1 mm 5 m/S 757 mmHg 65%
    14:00 +23°C° 0 mm 5 m/S 757 mmHg 64%
    15:00 +23°C° 0 mm 5 m/S 756 mmHg 63%
    16:00 +23°C° 0 mm 4 m/S 756 mmHg 63%
    17:00 +22°C° 0 mm 4 m/S 757 mmHg 68%
    18:00 +21°C° 0 mm 3 m/S 758 mmHg 74%
    19:00 +19°C° 0 mm 3 m/S 759 mmHg 80%
    20:00 +19°C° 0 mm 3 m/S 759 mmHg 80%
    21:00 +19°C° 0 mm 2 m/S 759 mmHg 80%
    22:00 +19°C° 0 mm 2 m/S 760 mmHg 80%
    23:00 +20°C° 0 mm 2 m/S 760 mmHg 79%

    Morgen, 21 Februar, Freitag

    Zeit Temperatur Niederschläge Wind Luftdruck Luftfeuchtigkeit
    00:00 +21°C° 0 mm 1 m/S 759 mmHg 77%
    01:00 +21°C° 0 mm 1 m/S 759 mmHg 76%
    02:00 +21°C° 0 mm 1 m/S 759 mmHg 77%
    03:00 +20°C° 0 mm 2 m/S 759 mmHg 77%
    04:00 +20°C° 0 mm 2 m/S 759 mmHg 77%
    05:00 +20°C° 0 mm 2 m/S 760 mmHg 76%
    06:00 +20°C° 0 mm 2 m/S 761 mmHg 75%
    07:00 +21°C° 0 mm 2 m/S 761 mmHg 73%
    08:00 +23°C° 0 mm 2 m/S 761 mmHg 69%
    09:00 +24°C° 0 mm 2 m/S 761 mmHg 64%
    10:00 +25°C° 0 mm 2 m/S 761 mmHg 59%
    11:00 +25°C° 0 mm 2 m/S 761 mmHg 59%
    12:00 +26°C° 0 mm 3 m/S 761 mmHg 59%
    13:00 +26°C° 0 mm 3 m/S 760 mmHg 59%
    14:00 +26°C° 0 mm 3 m/S 760 mmHg 61%
    15:00 +25°C° 0 mm 3 m/S 760 mmHg 62%
    16:00 +25°C° 0 mm 4 m/S 760 mmHg 64%
    23:00 +20°C° 0.4 mm 3 m/S 763 mmHg 91%

    übermorgen, 22 Februar, Samstag

    Zeit Temperatur Niederschläge Wind Luftdruck Luftfeuchtigkeit
    00:00 +19°C° 0.1 mm 2 m/S 764 mmHg 86%
    01:00 +19°C° 0.1 mm 2 m/S 764 mmHg 87%
    02:00 +19°C° 0.1 mm 2 m/S 764 mmHg 87%
    03:00 +19°C° 0.1 mm 3 m/S 764 mmHg 86%
    04:00 +20°C° 0.1 mm 3 m/S 764 mmHg 86%
    05:00 +20°C° 0.3 mm 3 m/S 764 mmHg 86%
    06:00 +20°C° 0.3 mm 3 m/S 765 mmHg 86%
    07:00 +21°C° 0.3 mm 3 m/S 765 mmHg 86%
    08:00 +21°C° 0.8 mm 4 m/S 766 mmHg 87%
    09:00 +22°C° 0.8 mm 4 m/S 766 mmHg 87%
    10:00 +22°C° 0.8 mm 5 m/S 766 mmHg 87%
    11:00 +22°C° 0.7 mm 5 m/S 766 mmHg 87%
    12:00 +22°C° 0.7 mm 5 m/S 766 mmHg 87%
    13:00 +22°C° 0.7 mm 6 m/S 765 mmHg 87%
    14:00 +22°C° 0.2 mm 6 m/S 765 mmHg 82%
    15:00 +23°C° 0.2 mm 6 m/S 765 mmHg 77%
    16:00 +23°C° 0.2 mm 6 m/S 764 mmHg 71%
    17:00 +22°C° 0 mm 5 m/S 765 mmHg 73%
    18:00 +22°C° 0 mm 5 m/S 765 mmHg 74%
    19:00 +21°C° 0 mm 4 m/S 766 mmHg 75%
    20:00 +21°C° 0 mm 4 m/S 766 mmHg 78%
    21:00 +20°C° 0 mm 4 m/S 767 mmHg 80%
    22:00 +20°C° 0 mm 4 m/S 767 mmHg 83%
    23:00 +19°C° 0 mm 4 m/S 767 mmHg 84%

    23 Februar, Sonntag

    Zeit Temperatur Niederschläge Wind Luftdruck Luftfeuchtigkeit
    00:00 +19°C° 0 mm 3 m/S 766 mmHg 86%
    01:00 +19°C° 0 mm 3 m/S 766 mmHg 87%
    02:00 +19°C° 0.2 mm 3 m/S 766 mmHg 88%
    03:00 +19°C° 0.2 mm 3 m/S 766 mmHg 89%
    04:00 +18°C° 0.2 mm 3 m/S 765 mmHg 90%
    05:00 +19°C° 0 mm 3 m/S 766 mmHg 89%
    06:00 +19°C° 0 mm 3 m/S 766 mmHg 87%
    07:00 +20°C° 0 mm 3 m/S 767 mmHg 86%
    08:00 +22°C° 0.1 mm 3 m/S 767 mmHg 78%
    09:00 +23°C° 0.1 mm 4 m/S 767 mmHg 70%
    10:00 +26°C° 0.1 mm 4 m/S 767 mmHg 62%
    11:00 +26°C° 0 mm 4 m/S 766 mmHg 61%
    12:00 +26°C° 0 mm 4 m/S 766 mmHg 59%
    13:00 +26°C° 0 mm 5 m/S 766 mmHg 58%
    14:00 +26°C° 0 mm 5 m/S 765 mmHg 59%
    15:00 +26°C° 0 mm 5 m/S 765 mmHg 60%
    16:00 +26°C° 0 mm 5 m/S 764 mmHg 61%
    17:00 +25°C° 0 mm 4 m/S 764 mmHg 68%
    18:00 +23°C° 0 mm 4 m/S 765 mmHg 74%
    19:00 +21°C° 0 mm 4 m/S 765 mmHg 81%
    20:00 +21°C° 0.1 mm 4 m/S 765 mmHg 84%
    21:00 +21°C° 0.1 mm 3 m/S 765 mmHg 88%
    22:00 +21°C° 0.1 mm 3 m/S 765 mmHg 91%
    23:00 +21°C° 0.2 mm 3 m/S 765 mmHg 91%

    24 Februar, Montag

    Zeit Temperatur Niederschläge Wind Luftdruck Luftfeuchtigkeit
    00:00 +21°C° 0.2 mm 3 m/S 765 mmHg 92%
    01:00 +21°C° 0.2 mm 2 m/S 764 mmHg 92%
    02:00 +20°C° 0.4 mm 2 m/S 764 mmHg 93%
    03:00 +20°C° 0.4 mm 3 m/S 764 mmHg 93%
    04:00 +20°C° 0.4 mm 3 m/S 764 mmHg 93%
    05:00 +20°C° 0.1 mm 2 m/S 764 mmHg 92%
    06:00 +21°C° 0.1 mm 2 m/S 764 mmHg 91%
    07:00 +22°C° 0.1 mm 1 m/S 765 mmHg 90%
    08:00 +24°C° 0.1 mm 2 m/S 764 mmHg 83%
    09:00 +26°C° 0.1 mm 2 m/S 764 mmHg 75%
    10:00 +28°C° 0.1 mm 3 m/S 764 mmHg 68%
    11:00 +28°C° 0.2 mm 3 m/S 764 mmHg 65%
    12:00 +28°C° 0.2 mm 3 m/S 763 mmHg 63%
    13:00 +29°C° 0.2 mm 3 m/S 763 mmHg 60%
    14:00 +28°C° 0.3 mm 4 m/S 762 mmHg 62%
    15:00 +28°C° 0.3 mm 4 m/S 762 mmHg 64%
    16:00 +28°C° 0.3 mm 4 m/S 761 mmHg 65%
    17:00 +26°C° 0.1 mm 4 m/S 761 mmHg 71%
    18:00 +25°C° 0.1 mm 4 m/S 762 mmHg 76%
    19:00 +23°C° 0.1 mm 4 m/S 762 mmHg 82%
    20:00 +22°C° 0.1 mm 4 m/S 762 mmHg 85%
    21:00 +21°C° 0.1 mm 4 m/S 762 mmHg 88%
    22:00 +21°C° 0.1 mm 3 m/S 763 mmHg 91%
    23:00 +20°C° 0.1 mm 3 m/S 762 mmHg 92%

    25 Februar, Dienstag

    Zeit Temperatur Niederschläge Wind Luftdruck Luftfeuchtigkeit
    00:00 +20°C° 0.1 mm 3 m/S 762 mmHg 93%
    01:00 +20°C° 0.1 mm 3 m/S 761 mmHg 94%
    02:00 +20°C° 0 mm 3 m/S 761 mmHg 94%
    03:00 +20°C° 0 mm 2 m/S 761 mmHg 95%
    04:00 +19°C° 0 mm 2 m/S 761 mmHg 95%
    05:00 +20°C° 0.1 mm 2 m/S 761 mmHg 93%
    06:00 +20°C° 0.1 mm 2 m/S 761 mmHg 91%
    07:00 +21°C° 0.1 mm 2 m/S 761 mmHg 88%
    08:00 +24°C° 0 mm 2 m/S 761 mmHg 79%
    09:00 +26°C° 0 mm 1 m/S 761 mmHg 70%
    10:00 +28°C° 0 mm 1 m/S 761 mmHg 61%
    11:00 +29°C° 0 mm 2 m/S 760 mmHg 60%
    12:00 +30°C° 0 mm 2 m/S 760 mmHg 58%
    13:00 +30°C° 0 mm 3 m/S 759 mmHg 57%
    14:00 +30°C° 0 mm 3 m/S 758 mmHg 58%
    15:00 +29°C° 0 mm 4 m/S 758 mmHg 60%
    16:00 +29°C° 0 mm 4 m/S 757 mmHg 62%
    17:00 +27°C° 0 mm 4 m/S 757 mmHg 70%
    18:00 +26°C° 0 mm 4 m/S 757 mmHg 79%
    19:00 +23°C° 0 mm 4 m/S 757 mmHg 87%
    20:00 +24°C° 0 mm 3 m/S 758 mmHg 89%
    21:00 +22°C° 0 mm 3 m/S 758 mmHg 92%
    22:00 +21°C° 0 mm 3 m/S 758 mmHg 94%
    23:00 +21°C° 0 mm 2 m/S 757 mmHg 94%
    Mehr zeigen